| time (UTC) | temp F | wind direction | speed MPH | gust MPH | rain 1hr in | rain 24hr in | rain mn in | humidity % | barometer mb |
| 20260503203520 | 57 | 214 | 2.0 | 15.0 | 0.00 | 0.00 | 0.00 | 31 | 1010.0 |
| 20260503203033 | 57 | 271 | 6.0 | 15.0 | 0.00 | 0.00 | 0.00 | 33 | 1010.2 |
| 20260503202521 | 57 | 286 | 5.0 | 14.0 | 0.00 | 0.00 | 0.00 | 32 | 1010.2 |
| 20260503202017 | 57 | 330 | 5.0 | 14.0 | 0.00 | 0.00 | 0.00 | 33 | 1010.2 |
| 20260503201537 | 56 | 17 | 6.0 | 12.0 | 0.00 | 0.00 | 0.00 | 32 | 1010.1 |
| 20260503201017 | 56 | 271 | 4.0 | 12.0 | 0.00 | 0.00 | 0.00 | 32 | 1010.1 |
| 20260503200517 | 56 | 325 | 5.0 | 19.0 | 0.00 | 0.00 | 0.00 | 34 | 1010.3 |
| 20260503200032 | 56 | 360 | 6.0 | 19.0 | 0.00 | 0.00 | 0.00 | 34 | 1010.2 |
| 20260503195517 | 55 | 310 | 6.0 | 19.0 | 0.00 | 0.00 | 0.00 | 33 | 1010.2 |
| 20260503195017 | 55 | 221 | 5.0 | 12.0 | 0.00 | 0.00 | 0.00 | 33 | 1010.3 |
| 20260503194534 | 55 | 254 | 7.0 | 12.0 | 0.00 | 0.00 | 0.00 | 35 | 1010.3 |
| 20260503194018 | 56 | 219 | 6.0 | 12.0 | 0.00 | 0.00 | 0.00 | 34 | 1010.3 |
| 20260503193517 | 55 | 280 | 4.0 | 12.0 | 0.00 | 0.00 | 0.00 | 37 | 1010.5 |
| 20260503193034 | 55 | 331 | 6.0 | 17.0 | 0.00 | 0.00 | 0.00 | 35 | 1010.5 |
| 20260503192516 | 55 | 286 | 5.0 | 17.0 | 0.00 | 0.00 | 0.00 | 37 | 1010.6 |
| 20260503192016 | 55 | 305 | 7.0 | 17.0 | 0.00 | 0.00 | 0.00 | 35 | 1010.8 |
| 20260503191534 | 55 | 296 | 5.0 | 14.0 | 0.00 | 0.00 | 0.00 | 38 | 1010.8 |
| 20260503191017 | 55 | 202 | 5.0 | 12.0 | 0.00 | 0.00 | 0.00 | 37 | 1010.8 |
| 20260503190518 | 54 | 68 | 3.0 | 18.0 | 0.00 | 0.00 | 0.00 | 39 | 1010.7 |
| 20260503190041 | 54 | 330 | 5.0 | 18.0 | 0.00 | 0.00 | 0.00 | 38 | 1010.9 |
| 20260503185517 | 54 | 316 | 5.0 | 16.0 | 0.00 | 0.00 | 0.00 | 38 | 1010.9 |
| 20260503185020 | 54 | 315 | 8.0 | 18.0 | 0.00 | 0.00 | 0.00 | 41 | 1011.1 |
| 20260503184530 | 54 | 286 | 7.0 | 18.0 | 0.00 | 0.00 | 0.00 | 38 | 1011.0 |
| 20260503184014 | 54 | 221 | 5.0 | 15.0 | 0.00 | 0.00 | 0.00 | 41 | 1011.0 |
| 20260503183516 | 53 | 121 | 7.0 | 15.0 | 0.00 | 0.00 | 0.00 | 38 | 1011.0 |
| 20260503183038 | 53 | 324 | 7.0 | 19.0 | 0.00 | 0.00 | 0.00 | 39 | 1011.2 |
| 20260503182517 | 53 | 200 | 5.0 | 19.0 | 0.00 | 0.00 | 0.00 | 39 | 1011.2 |
| 20260503182016 | 53 | 271 | 9.0 | 19.0 | 0.00 | 0.00 | 0.00 | 41 | 1011.2 |
| 20260503181549 | 53 | 292 | 5.0 | 12.0 | 0.00 | 0.00 | 0.00 | 41 | 1011.1 |
| 20260503181017 | 53 | 291 | 5.0 | 12.0 | 0.00 | 0.00 | 0.00 | 41 | 1011.0 |
| 20260503180517 | 53 | 76 | 7.0 | 13.0 | 0.00 | 0.00 | 0.00 | 40 | 1011.1 |
| 20260503180045 | 53 | 339 | 5.0 | 13.0 | 0.00 | 0.00 | 0.00 | 42 | 1011.0 |
| 20260503175520 | 52 | 288 | 6.0 | 13.0 | 0.00 | 0.00 | 0.00 | 43 | 1011.1 |
| 20260503175018 | 52 | 242 | 5.0 | 13.0 | 0.00 | 0.00 | 0.00 | 42 | 1011.1 |
| 20260503174534 | 52 | 227 | 5.0 | 13.0 | 0.00 | 0.00 | 0.00 | 41 | 1011.0 |
| 20260503174019 | 52 | 303 | 4.0 | 12.0 | 0.00 | 0.00 | 0.00 | 40 | 1011.1 |
| 20260503173516 | 52 | 213 | 5.0 | 19.0 | 0.00 | 0.00 | 0.00 | 42 | 1011.0 |
| 20260503173031 | 51 | 279 | 3.0 | 19.0 | 0.00 | 0.00 | 0.00 | 42 | 1011.2 |
| 20260503172516 | 52 | 303 | 4.0 | 18.0 | 0.00 | 0.00 | 0.00 | 43 | 1011.2 |
| 20260503172017 | 51 | 288 | 8.0 | 18.0 | 0.00 | 0.00 | 0.00 | 40 | 1011.3 |
| 20260503171530 | 52 | 325 | 9.0 | 18.0 | 0.00 | 0.00 | 0.00 | 39 | 1011.2 |
| 20260503171017 | 52 | 284 | 5.0 | 15.0 | 0.00 | 0.00 | 0.00 | 40 | 1011.2 |
| 20260503170516 | 51 | 144 | 6.0 | 23.0 | 0.00 | 0.00 | 0.00 | 42 | 1011.2 |
| 20260503150516 | 48 | 277 | 5.0 | 10.0 | 0.00 | 0.00 | 0.00 | 48 | 1012.0 |
| 20260503131017 | 47 | 252 | 5.0 | 12.0 | 0.00 | 0.00 | 0.00 | 56 | 1012.1 |
| 20260503130515 | 46 | 232 | 5.0 | 11.0 | 0.00 | 0.00 | 0.00 | 56 | 1012.2 |
| 20260503110523 | 42 | 289 | 2.0 | 8.0 | 0.00 | 0.00 | 0.00 | 64 | 1010.9 |
| 20260503081529 | 42 | 321 | 2.0 | 7.0 | 0.00 | 0.04 | 0.00 | 64 | 1010.2 |
| 20260503081016 | 42 | 332 | 2.0 | 7.0 | 0.00 | 0.04 | 0.00 | 64 | 1010.2 |
| 20260503080514 | 42 | 309 | 2.0 | 5.0 | 0.00 | 0.04 | 0.00 | 64 | 1010.2 |
| 20260503072516 | 43 | 9 | 3.0 | 7.0 | 0.00 | 0.04 | 0.00 | 61 | 1010.3 |
| 20260503072015 | 43 | 28 | 3.0 | 7.0 | 0.00 | 0.04 | 0.00 | 61 | 1010.3 |
| 20260503071532 | 43 | 346 | 3.0 | 7.0 | 0.00 | 0.04 | 0.00 | 60 | 1010.2 |
| 20260503071015 | 44 | 47 | 3.0 | 8.0 | 0.00 | 0.04 | 0.00 | 59 | 1010.3 |
| 20260503070515 | 44 | 108 | 2.0 | 8.0 | 0.00 | 0.04 | 0.00 | 59 | 1010.2 |
| 20260503055015 | 45 | 80 | 2.0 | 9.0 | 0.00 | 0.04 | 0.00 | 56 | 1011.0 |
| 20260503054537 | 45 | 325 | 2.0 | 9.0 | 0.00 | 0.04 | 0.00 | 55 | 1010.9 |
| 20260503054015 | 46 | 16 | 2.0 | 7.0 | 0.00 | 0.04 | 0.00 | 56 | 1010.9 |
| 20260503053516 | 46 | 16 | 2.0 | 9.0 | 0.00 | 0.04 | 0.00 | 54 | 1011.0 |
| 20260503053030 | 46 | 309 | 4.0 | 9.0 | 0.00 | 0.04 | 0.00 | 55 | 1011.1 |
| 20260503052519 | 46 | 303 | 1.0 | 6.0 | 0.00 | 0.04 | 0.00 | 57 | 1011.1 |
| 20260503052017 | 46 | 51 | 1.0 | 7.0 | 0.00 | 0.04 | 0.00 | 56 | 1011.1 |
| 20260503051536 | 46 | 13 | 3.0 | 7.0 | 0.00 | 0.04 | 0.00 | 56 | 1011.2 |
| 20260503051016 | 46 | 13 | 2.0 | 5.0 | 0.00 | 0.04 | 0.00 | 57 | 1011.2 |
| 20260503050516 | 46 | 51 | 1.0 | 5.0 | 0.00 | 0.04 | 0.00 | 57 | 1011.2 |
| 20260503050033 | 46 | 291 | 1.0 | 5.0 | 0.00 | 0.04 | 0.00 | 56 | 1011.3 |
| 20260503045519 | 46 | 61 | 2.0 | 5.0 | 0.00 | 0.04 | 0.00 | 57 | 1011.3 |
| 20260503045017 | 46 | 323 | 1.0 | 5.0 | 0.00 | 0.04 | 0.00 | 56 | 1011.3 |
| 20260503044531 | 46 | 0 | 2.0 | 5.0 | 0.00 | 0.04 | 0.00 | 56 | 1011.4 |
| 20260503044014 | 47 | 30 | 0.0 | 5.0 | 0.00 | 0.04 | 0.00 | 56 | 1011.3 |
| 20260503043514 | 47 | 0 | 1.0 | 8.0 | 0.00 | 0.04 | 0.00 | 56 | 1011.4 |
| 20260503043030 | 47 | 340 | 2.0 | 8.0 | 0.00 | 0.04 | 0.00 | 54 | 1011.5 |
| 20260503042517 | 47 | 9 | 2.0 | 8.0 | 0.00 | 0.04 | 0.00 | 54 | 1011.5 |
| 20260503042018 | 47 | 9 | 2.0 | 6.0 | 0.00 | 0.04 | 0.00 | 55 | 1011.5 |
| 20260503041530 | 47 | 15 | 2.0 | 6.0 | 0.00 | 0.04 | 0.00 | 54 | 1011.5 |
| 20260503041017 | 47 | 325 | 2.0 | 4.0 | 0.00 | 0.04 | 0.00 | 54 | 1011.5 |
| 20260503040519 | 47 | 15 | 2.0 | 6.0 | 0.00 | 0.04 | 0.00 | 55 | 1011.4 |
| 20260503040036 | 48 | 0 | 1.0 | 6.0 | 0.00 | 0.04 | 0.00 | 54 | 1011.3 |
| 20260503035516 | 48 | 46 | 2.0 | 8.0 | 0.00 | 0.04 | 0.04 | 53 | 1011.3 |
| 20260503035016 | 48 | 309 | 2.0 | 8.0 | 0.00 | 0.04 | 0.04 | 53 | 1011.3 |
| 20260503034532 | 48 | 74 | 3.0 | 8.0 | 0.00 | 0.04 | 0.04 | 52 | 1011.3 |
| 20260503034017 | 48 | 28 | 2.0 | 10.0 | 0.00 | 0.04 | 0.04 | 52 | 1011.2 |
| 20260503033515 | 48 | 346 | 2.0 | 10.0 | 0.00 | 0.04 | 0.04 | 53 | 1011.2 |
| 20260503033032 | 48 | 298 | 3.0 | 10.0 | 0.00 | 0.04 | 0.04 | 51 | 1011.2 |
| 20260503032518 | 49 | 328 | 3.0 | 10.0 | 0.00 | 0.04 | 0.04 | 51 | 1011.1 |
| 20260503032017 | 49 | 26 | 3.0 | 11.0 | 0.00 | 0.04 | 0.04 | 51 | 1011.1 |
| 20260503031531 | 49 | 48 | 4.0 | 11.0 | 0.00 | 0.04 | 0.04 | 51 | 1011.0 |
| 20260503031017 | 49 | 319 | 2.0 | 7.0 | 0.00 | 0.04 | 0.04 | 53 | 1010.9 |
| 20260503030514 | 49 | 93 | 2.0 | 7.0 | 0.00 | 0.04 | 0.04 | 53 | 1010.9 |
| 20260503030035 | 49 | 34 | 1.0 | 8.0 | 0.00 | 0.04 | 0.04 | 54 | 1011.0 |
| 20260503025514 | 49 | 328 | 2.0 | 8.0 | 0.00 | 0.04 | 0.04 | 53 | 1011.0 |
| 20260503025016 | 49 | 9 | 1.0 | 4.0 | 0.00 | 0.04 | 0.04 | 54 | 1010.9 |
| 20260503024539 | 49 | 22 | 1.0 | 4.0 | 0.00 | 0.04 | 0.04 | 54 | 1010.9 |
| 20260503024015 | 49 | 305 | 2.0 | 4.0 | 0.00 | 0.04 | 0.04 | 56 | 1010.9 |
| 20260503023516 | 49 | 76 | 1.0 | 4.0 | 0.00 | 0.04 | 0.04 | 53 | 1011.0 |
| 20260503023034 | 49 | 0 | 1.0 | 4.0 | 0.00 | 0.04 | 0.04 | 54 | 1011.0 |
| 20260503022519 | 49 | 342 | 0.0 | 3.0 | 0.00 | 0.04 | 0.04 | 54 | 1011.1 |
| 20260503022016 | 50 | 309 | 1.0 | 4.0 | 0.00 | 0.04 | 0.04 | 54 | 1011.2 |
| 20260503021533 | 50 | 34 | 0.0 | 4.0 | 0.00 | 0.04 | 0.04 | 53 | 1011.3 |
| 20260503021014 | 50 | 319 | 0.0 | 4.0 | 0.00 | 0.04 | 0.04 | 51 | 1011.4 |
| 20260503020516 | 50 | 30 | 1.0 | 4.0 | 0.00 | 0.04 | 0.04 | 52 | 1011.5 |
| 20260503020034 | 50 | 47 | 1.0 | 4.0 | 0.00 | 0.04 | 0.04 | 50 | 1011.4 |
| 20260503015519 | 50 | 337 | 1.0 | 4.0 | 0.00 | 0.04 | 0.04 | 50 | 1011.4 |
| 20260503015017 | 51 | 26 | 1.0 | 5.0 | 0.00 | 0.04 | 0.04 | 49 | 1011.5 |
| 20260503014532 | 51 | 36 | 2.0 | 9.0 | 0.00 | 0.04 | 0.04 | 49 | 1011.5 |
| 20260503014017 | 51 | 338 | 2.0 | 9.0 | 0.00 | 0.04 | 0.04 | 49 | 1011.4 |
| 20260503013517 | 51 | 0 | 2.0 | 9.0 | 0.00 | 0.04 | 0.04 | 48 | 1011.5 |
| 20260503013032 | 51 | 48 | 2.0 | 9.0 | 0.00 | 0.04 | 0.04 | 47 | 1011.4 |
| 20260503012517 | 51 | 36 | 2.0 | 8.0 | 0.00 | 0.04 | 0.04 | 47 | 1011.5 |
| 20260503012016 | 51 | 249 | 3.0 | 12.0 | 0.00 | 0.04 | 0.04 | 46 | 1011.5 |
| 20260503011534 | 51 | 9 | 2.0 | 12.0 | 0.00 | 0.04 | 0.04 | 46 | 1011.4 |
| 20260503011020 | 52 | 128 | 2.0 | 12.0 | 0.00 | 0.04 | 0.04 | 45 | 1011.3 |
| 20260503010514 | 52 | 300 | 3.0 | 9.0 | 0.00 | 0.04 | 0.04 | 44 | 1011.3 |
| 20260503010034 | 52 | 20 | 3.0 | 9.0 | 0.00 | 0.04 | 0.04 | 43 | 1011.2 |
| 20260503005516 | 52 | 15 | 2.0 | 8.0 | 0.00 | 0.04 | 0.04 | 43 | 1011.1 |
| 20260503005018 | 52 | 319 | 2.0 | 9.0 | 0.00 | 0.04 | 0.04 | 43 | 1011.1 |
| 20260503004534 | 52 | 319 | 2.0 | 9.0 | 0.00 | 0.04 | 0.04 | 43 | 1011.0 |
| 20260503004017 | 52 | 254 | 2.0 | 8.0 | 0.00 | 0.04 | 0.04 | 43 | 1010.9 |
| 20260503003515 | 52 | 303 | 2.0 | 8.0 | 0.00 | 0.04 | 0.04 | 44 | 1011.0 |
| 20260503003032 | 52 | 270 | 1.0 | 4.0 | 0.00 | 0.04 | 0.04 | 44 | 1010.9 |
| 20260503002515 | 52 | 313 | 1.0 | 6.0 | 0.00 | 0.04 | 0.04 | 45 | 1010.8 |
| 20260503002018 | 52 | 23 | 1.0 | 6.0 | 0.00 | 0.04 | 0.04 | 45 | 1010.9 |
| 20260503001530 | 52 | 13 | 1.0 | 5.0 | 0.00 | 0.04 | 0.04 | 45 | 1011.0 |
| 20260503001017 | 52 | 0 | 1.0 | 5.0 | 0.00 | 0.04 | 0.04 | 49 | 1010.9 |
| 20260503000514 | 52 | 26 | 1.0 | 4.0 | 0.00 | 0.04 | 0.04 | 47 | 1010.9 |
| 20260503000032 | 52 | 319 | 1.0 | 5.0 | 0.00 | 0.04 | 0.04 | 48 | 1010.9 |
| 20260502235514 | 53 | 325 | 1.0 | 5.0 | 0.00 | 0.04 | 0.04 | 48 | 1011.0 |
| 20260502235015 | 53 | 309 | 0.0 | 4.0 | 0.00 | 0.04 | 0.04 | 48 | 1010.9 |
| 20260502234536 | 53 | 316 | 1.0 | 4.0 | 0.00 | 0.04 | 0.04 | 46 | 1010.7 |
| 20260502234014 | 54 | 9 | 1.0 | 7.0 | 0.00 | 0.04 | 0.04 | 44 | 1010.6 |
| 20260502233517 | 54 | 0 | 1.0 | 7.0 | 0.00 | 0.04 | 0.04 | 42 | 1010.6 |
| 20260502233030 | 54 | 282 | 1.0 | 4.0 | 0.00 | 0.04 | 0.04 | 42 | 1010.5 |
| 20260502232514 | 54 | 9 | 1.0 | 7.0 | 0.00 | 0.04 | 0.04 | 42 | 1010.5 |
| 20260502232016 | 55 | 338 | 2.0 | 7.0 | 0.00 | 0.04 | 0.04 | 42 | 1010.5 |
| 20260502231537 | 55 | 291 | 2.0 | 7.0 | 0.00 | 0.04 | 0.04 | 42 | 1010.5 |
| 20260502231016 | 55 | 9 | 2.0 | 7.0 | 0.00 | 0.04 | 0.04 | 42 | 1010.3 |
| 20260502230516 | 55 | 298 | 1.0 | 4.0 | 0.00 | 0.04 | 0.04 | 45 | 1010.4 |
| 20260502230030 | 55 | 282 | 1.0 | 4.0 | 0.00 | 0.04 | 0.04 | 46 | 1010.5 |
| 20260502225518 | 55 | 0 | 0.0 | 3.0 | 0.00 | 0.04 | 0.04 | 45 | 1010.6 |
| 20260502225016 | 56 | 234 | 1.0 | 3.0 | 0.00 | 0.04 | 0.04 | 44 | 1010.5 |
| 20260502224532 | 56 | 0 | 0.0 | 3.0 | 0.00 | 0.04 | 0.04 | 44 | 1010.4 |
| 20260502224016 | 57 | 265 | 0.0 | 5.0 | 0.00 | 0.04 | 0.04 | 47 | 1010.4 |
| 20260502223515 | 57 | 93 | 0.0 | 5.0 | 0.00 | 0.04 | 0.04 | 42 | 1010.4 |
| 20260502223032 | 58 | 51 | 1.0 | 6.0 | 0.00 | 0.04 | 0.04 | 42 | 1010.4 |
| 20260502222516 | 58 | 301 | 2.0 | 6.0 | 0.00 | 0.04 | 0.04 | 40 | 1010.4 |
| 20260502222019 | 57 | 325 | 1.0 | 6.0 | 0.00 | 0.04 | 0.04 | 39 | 1010.5 |
| 20260502221536 | 57 | 9 | 2.0 | 7.0 | 0.00 | 0.04 | 0.04 | 39 | 1010.4 |
| 20260502221015 | 57 | 309 | 2.0 | 7.0 | 0.00 | 0.04 | 0.04 | 40 | 1010.2 |
| 20260502220517 | 57 | 247 | 2.0 | 7.0 | 0.00 | 0.04 | 0.04 | 39 | 1010.2 |
| 20260502220045 | 57 | 257 | 2.0 | 7.0 | 0.00 | 0.04 | 0.04 | 38 | 1010.2 |
| 20260502215515 | 57 | 216 | 2.0 | 12.0 | 0.00 | 0.04 | 0.04 | 38 | 1010.3 |
| 20260502215015 | 58 | 328 | 4.0 | 12.0 | 0.00 | 0.04 | 0.04 | 39 | 1010.2 |
| 20260502214533 | 59 | 321 | 3.0 | 11.0 | 0.00 | 0.04 | 0.04 | 39 | 1010.3 |
| 20260502214015 | 60 | 101 | 3.0 | 9.0 | 0.00 | 0.04 | 0.04 | 37 | 1010.3 |
| 20260502213515 | 60 | 325 | 3.0 | 8.0 | 0.00 | 0.04 | 0.04 | 39 | 1010.2 |
| 20260502213035 | 60 | 273 | 1.0 | 6.0 | 0.00 | 0.04 | 0.04 | 40 | 1010.2 |
| 20260502212520 | 59 | 221 | 2.0 | 6.0 | 0.00 | 0.04 | 0.04 | 41 | 1010.1 |
| 20260502212020 | 59 | 228 | 3.0 | 7.0 | 0.00 | 0.04 | 0.04 | 40 | 1010.2 |
| 20260502211533 | 60 | 9 | 2.0 | 7.0 | 0.00 | 0.04 | 0.04 | 38 | 1010.2 |
| 20260502211015 | 59 | 286 | 2.0 | 7.0 | 0.00 | 0.04 | 0.04 | 40 | 1010.1 |
| 20260502210516 | 59 | 305 | 1.0 | 7.0 | 0.00 | 0.04 | 0.04 | 42 | 1010.1 |
| 20260502210031 | 58 | 319 | 2.0 | 9.0 | 0.00 | 0.04 | 0.04 | 38 | 1010.1 |
| 20260502205515 | 58 | 338 | 4.0 | 9.0 | 0.00 | 0.04 | 0.04 | 37 | 1010.1 |
| 20260502205016 | 58 | 309 | 1.0 | 7.0 | 0.00 | 0.04 | 0.04 | 43 | 1010.1 |
| 20260502204535 | 58 | 280 | 2.0 | 6.0 | 0.00 | 0.04 | 0.04 | 46 | 1010.2 |
| 20260502204015 | 58 | 259 | 1.0 | 8.0 | 0.00 | 0.04 | 0.04 | 44 | 1010.2 |